Weather History for KMLU - June, 2014

Change the Weather History Date:

Thursday, June 26, 2014

  Actual Average Record
Temperature  
Mean Temperature 78 °F 82 °F  
Max Temperature 86 °F 93 °F 108 °F (1931)
Min Temperature 70 °F 71 °F 58 °F (1974)
Degree Days  
Heating Degree Days 0 0  
Month to date heating degree days 0 0  
Since 1 June heating degree days 0 0  
Since 1 July heating degree days 2839 2230  
Cooling Degree Days 13 17  
Month to date cooling degree days 410 397  
Year to date cooling degree days 740 832  
Since 1 June cooling degree days 410 397  
Growing Degree Days 28 (Base 50)    
Moisture  
Dew Point 70 °F    
Average Humidity 77    
Maximum Humidity 93    
Minimum Humidity 61    
Precipitation  
Precipitation 0.02 in 0.16 in 1.72 in (1999)
Month to date precipitation 4.56 4.05  
Year to date precipitation 29.47 28.10  
Snow  
Snow 0.00 in - - ()
Month to date snowfall 0.0  
Since 1 June snowfall 0.0  
Since 1 July snowfall 0.5  
Snow Depth 0.00 in    
Sea Level Pressure  
Sea Level Pressure 30.04 in    
Wind  
Wind Speed 5 mph (SSW)    
Max Wind Speed 15 mph    
Max Gust Speed 21 mph    
Visibility 10 miles    
Events Rain    
T = Trace of Precipitation, MM = Missing Value Source: NWS Daily Summary

Daily Weather History Graph

Daily Weather History Graph

Search for Another Location

Airport or City:

Trip Planner

Search our weather history database for the weather conditions in past years. The results will help you decide how hot, cold, wet, or windy it might be!

Date:

Astronomy

Jun. 26, 2014 Rise Set
Actual Time 6:02 AM CDT 8:19 PM CDT
Civil Twilight 5:34 AM CDT 8:47 PM CDT
Nautical Twilight 4:59 AM CDT 9:22 PM CDT
Astronomical Twilight 4:21 AM CDT 10:00 PM CDT
Moon 5:37 AM CDT (6/26) 7:45 PM CDT (6/26)
Length of Visible Light 15h 13m
Length of Day
14h 16m
Waning Crescent, 0% of the Moon is Illuminated
Jun 26
Waning Crescent
Jun 27
New
Jul 5
First Quarter
Jul 12
Full
Jul 18
Last Quarter

Hourly Weather History & Observations

Time (CDT) Temp. Heat Index Dew Point Humidity Pressure Visibility Wind Dir Wind Speed Gust Speed Precip Events Conditions
12:53 AM 72.0 °F - 70.0 °F 93% 30.04 in 10.0 mi Calm Calm - N/A   Mostly Cloudy
1:14 AM 71.6 °F - 69.8 °F 94% 30.05 in 10.0 mi SSW 3.5 mph - N/A   Mostly Cloudy
1:35 AM 71.6 °F - 69.8 °F 94% 30.05 in 10.0 mi South 5.8 mph - N/A   Overcast
1:53 AM 72.0 °F - 70.0 °F 93% 30.04 in 10.0 mi South 3.5 mph - N/A   Overcast
2:53 AM 72.0 °F - 70.0 °F 93% 30.03 in 10.0 mi South 4.6 mph - 0.00 in   Partly Cloudy
3:11 AM 71.6 °F - 69.8 °F 94% 30.03 in 10.0 mi South 5.8 mph - N/A   Mostly Cloudy
3:28 AM 71.6 °F - 69.8 °F 94% 30.03 in 10.0 mi South 3.5 mph - N/A   Mostly Cloudy
3:53 AM 72.0 °F - 70.0 °F 93% 30.03 in 10.0 mi South 3.5 mph - 0.00 in Rain Light Rain
4:53 AM 71.1 °F - 70.0 °F 96% 30.03 in 10.0 mi South 3.5 mph - 0.01 in Rain Light Rain
5:21 AM 71.6 °F - 69.8 °F 94% 30.03 in 10.0 mi South 4.6 mph - 0.00 in Rain Light Rain
5:53 AM 71.1 °F - 69.1 °F 93% 30.04 in 10.0 mi South 4.6 mph - 0.00 in Rain Light Rain
6:15 AM 71.6 °F - 69.8 °F 94% 30.05 in 10.0 mi South 3.5 mph - 0.00 in Rain Light Rain
6:24 AM 71.6 °F - 69.8 °F 94% 30.06 in 10.0 mi South 4.6 mph - 0.00 in Rain Light Rain
6:53 AM 72.0 °F - 70.0 °F 93% 30.06 in 10.0 mi SSW 3.5 mph - 0.01 in Rain Light Rain
7:53 AM 72.0 °F - 70.0 °F 93% 30.09 in 10.0 mi SW 5.8 mph - 0.00 in Rain Light Rain
8:53 AM 73.0 °F - 71.1 °F 93% 30.11 in 10.0 mi South 3.5 mph - 0.00 in   Overcast
9:53 AM 75.0 °F - 71.1 °F 87% 30.10 in 10.0 mi SSW 3.5 mph - N/A   Overcast
10:12 AM 75.2 °F - 71.6 °F 89% 30.10 in 10.0 mi South 5.8 mph - N/A   Overcast
10:53 AM 77.0 °F - 71.1 °F 82% 30.09 in 10.0 mi SW 5.8 mph - N/A   Mostly Cloudy
11:06 AM 78.8 °F - 71.6 °F 78% 30.09 in 10.0 mi WSW 6.9 mph - N/A   Mostly Cloudy
11:21 AM 80.6 °F 84.6 °F 71.6 °F 74% 30.08 in 10.0 mi SSW 5.8 mph - N/A   Scattered Clouds
11:28 AM 80.6 °F 84.6 °F 71.6 °F 74% 30.08 in 10.0 mi SW 6.9 mph - N/A   Mostly Cloudy
11:40 AM 80.6 °F 84.6 °F 71.6 °F 74% 30.08 in 10.0 mi SSW 6.9 mph - N/A   Scattered Clouds
11:53 AM 81.0 °F 84.9 °F 71.1 °F 72% 30.07 in 10.0 mi SSW 9.2 mph - N/A   Scattered Clouds
12:53 PM 81.0 °F 84.4 °F 70.0 °F 69% 30.06 in 10.0 mi SSW 6.9 mph - N/A   Partly Cloudy
1:20 PM 82.4 °F 87.2 °F 71.6 °F 70% 30.05 in 10.0 mi WSW 5.8 mph - N/A   Mostly Cloudy
1:53 PM 82.9 °F 87.5 °F 71.1 °F 67% 30.03 in 10.0 mi Variable 3.5 mph - N/A   Mostly Cloudy
2:34 PM 84.2 °F 89.6 °F 71.6 °F 66% 30.00 in 10.0 mi West 5.8 mph - N/A   Mostly Cloudy
2:53 PM 84.0 °F 89.0 °F 71.1 °F 65% 30.00 in 10.0 mi SSW 5.8 mph - N/A   Mostly Cloudy
3:53 PM 84.0 °F 88.4 °F 70.0 °F 63% 29.99 in 10.0 mi SW 9.2 mph - N/A   Partly Cloudy
4:53 PM 82.0 °F 86.7 °F 72.0 °F 71% 29.97 in 10.0 mi South 6.9 mph - N/A   Clear
5:53 PM 81.0 °F 85.2 °F 72.0 °F 74% 30.00 in 10.0 mi South 6.9 mph - N/A   Clear
6:53 PM 80.1 °F 84.2 °F 73.0 °F 79% 30.00 in 10.0 mi South 4.6 mph - N/A   Partly Cloudy
7:53 PM 78.1 °F - 68.0 °F 71% 29.99 in 10.0 mi South 8.1 mph - N/A   Mostly Cloudy
8:53 PM 75.0 °F - 69.1 °F 82% 30.01 in 10.0 mi South 9.2 mph - N/A   Mostly Cloudy
9:53 PM 73.9 °F - 66.9 °F 79% 30.03 in 10.0 mi South 4.6 mph - N/A   Scattered Clouds
10:53 PM 72.0 °F - 68.0 °F 87% 30.03 in 10.0 mi Calm Calm - N/A   Clear
11:53 PM 71.1 °F - 68.0 °F 90% 30.02 in 10.0 mi South 3.5 mph - N/A   Mostly Cloudy